Temp
25 25 25 25 25 25 26 26 25 25 26 26 26 26 26 26 26 25 25 25 24 24 24 24 24 24 24 23 23 23 23 23 24 24 23 23 23 23 24 24 24 24
25 25 25 25 25 25 25 26 25 26 25 26 26 26 26 26 25 25 25 25 24 24 24 24 24 24 24 24 23 23 23 23 24 24 24 23 23 24 24 24 24 24
25 25 25 25 25 25 25 25 25 25 25 25 26 26 26 26 25 25 25 25 25 25 24 24 24 24 24 24 24 23 23 23 24 24 24 23 23 24 24 24 24 24
25 25 25 25 25 25 25 25 25 25 25 26 25 26 26 26 26 25 25 25 25 25 25 24 24 24 24 24 24 24 24 23 24 24 24 23 23 23 24 24 24 24
25 25 25 25 25 25 25 25 25 25 25 26 26 26 26 25 25 25 25 25 25 25 25 24 24 24 24 24 24 24 24 24 24 24 23 23 23 23 24 24 24 24
25 25 25 25 25 25 25 25 26 26 26 26 26 26 25 25 25 25 25 25 25 25 25 25 24 24 24 24 24 24 24 24 25 24 23 23 23 23 24 23 23 23
25 25 25 25 25 25 25 25 25 26 26 26 26 26 26 25 25 25 25 25 25 25 25 25 25 24 24 24 24 24 24 24 25 24 24 23 23 23 23 23 23 23
26 26 25 25 25 25 25 26 26 26 26 26 26 26 26 26 25 25 25 25 25 25 25 25 25 24 24 24 24 24 24 24 24 24 24 23 23 23 23 23 23 23
26 26 26 26 26 26 26 26 26 26 25 26 26 26 26 26 26 26 25 25 25 25 25 25 25 24 24 25 24 24 24 24 24 24 24 23 23 23 23 23 23 23
26 26 26 26 26 27 27 27 27 26 26 26 26 27 26 26 26 26 25 25 25 25 25 25 25 24 25 25 24 24 24 24 24 24 24 23 24 24 23 23 23 23
27 27 27 27 27 27 27 27 27 27 27 26 26 27 27 26 26 26 26 25 25 25 25 25 24 24 25 25 25 24 24 24 24 24 24 24 24 24 24 23 23 23
27 27 27 27 27 28 28 28 28 28 28 27 26 27 27 27 26 26 26 25 25 25 25 25 25 24 24 25 25 24 24 25 25 24 24 24 24 24 24 23 23 23
28 28 28 28 28 28 28 28 28 28 28 28 27 27 27 27 27 26 26 25 25 25 25 25 25 24 24 24 25 25 24 25 25 24 24 24 24 24 24 24 23 23
28 28 28 28 28 28 28 28 28 28 28 28 28 27 27 28 28 27 26 26 25 25 25 25 25 25 24 24 24 25 25 25 25 25 24 24 24 24 24 24 24 24
29 28 28 27 28 27 27 27 28 28 28 28 28 27 27 28 28 28 27 26 26 25 25 25 25 25 25 24 24 24 25 25 25 25 25 25 24 24 24 24 24 24
28 28 28 27 27 27 27 27 27 28 28 28 27 27 27 27 28 28 27 27 26 25 25 25 25 25 25 25 25 24 24 25 25 24 25 25 24 24 24 24 24 24
28 28 27 27 27 27 26 26 27 27 27 27 27 27 27 27 27 27 28 27 27 26 26 25 25 25 25 25 25 25 24 24 25 24 24 24 24 24 24 24 24 24
28 27 27 27 26 26 26 26 26 27 27 27 27 27 26 26 27 27 27 27 27 27 26 26 26 25 25 25 25 25 24 24 25 24 24 24 24 24 24 24 24 24
28 27 27 27 26 26 26 26 26 26 27 27 26 26 26 26 26 26 26 27 27 27 26 26 26 26 25 25 25 25 25 24 24 25 25 24 24 24 24 24 24 24
28 27 27 27 26 26 26 26 26 26 26 26 26 26 26 26 26 26 26 26 26 26 26 26 26 26 25 25 25 25 25 24 24 24 25 24 24 24 24 24 24 24
28 27 27 27 26 26 26 26 26 26 26 26 27 26 26 26 26 26 26 25 26 26 26 26 26 26 25 25 25 25 25 24 24 24 24 24 24 24 24 24 24 24
28 28 27 27 27 26 26 26 26 26 26 26 26 26 26 26 26 26 26 26 26 26 26 26 26 26 25 25 25 24 24 24 23 23 24 24 24 24 24 24 24 24
28 28 27 27 27 27 26 26 26 26 26 26 26 26 26 26 26 26 26 26 26 26 26 26 26 26 25 25 25 24 24 23 23 23 23 24 24 24 24 24 24 24
28 28 28 27 27 27 27 26 26 26 26 26 26 26 26 26 26 26 26 26 26 26 26 26 26 26 25 25 25 24 24 23 22 22 23 23 24 24 24 24 24 24
28 28 28 27 27 27 27 27 26 26 26 26 26 26 26 27 27 27 27 27 26 26 26 26 26 26 26 25 25 24 23 23 22 23 23 24 24 24 24 24 24 23
28 28 28 28 27 27 27 27 27 26 26 26 26 26 27 27 27 27 27 27 27 27 26 26 26 26 26 26 25 24 23 23 22 23 23 24 24 24 24 24 24 23
Height
795 798 799 801 802 804 805 807 808 810 812 814 815 817 818 820 821 823 824 825 827 828 830 831 833 835 836 837 838 839 840 841 842 843 844 846 847 847 848 849 850 850
792 794 796 797 799 800 801 803 805 807 809 810 812 814 815 817 819 820 822 823 824 826 827 829 830 832 834 835 836 837 838 839 840 841 842 844 844 845 846 847 848 849
788 790 792 793 794 795 797 800 802 804 806 807 809 811 812 814 815 817 818 820 822 824 825 826 828 829 831 832 834 835 836 837 838 839 841 841 842 843 844 845 845 846
783 785 787 789 790 792 794 797 799 800 803 804 805 807 809 811 812 813 815 817 819 821 822 824 825 826 828 829 831 832 833 835 836 837 839 839 840 841 841 842 843 844
777 780 783 785 787 789 790 792 794 796 798 800 802 804 805 807 809 810 812 813 815 817 819 821 822 823 825 826 828 829 830 832 834 835 836 837 838 838 839 840 841 842
772 775 778 781 783 785 786 788 790 792 794 796 798 800 801 803 805 806 808 809 811 814 816 817 819 820 822 823 825 826 827 829 831 832 834 835 835 836 837 838 838 840
766 769 772 776 778 780 782 784 786 788 790 792 794 796 797 799 800 802 804 806 807 809 811 814 815 817 819 820 821 823 824 826 827 829 831 832 833 833 834 835 836 838
760 763 766 770 773 775 777 779 782 783 786 788 790 791 793 795 796 798 800 801 803 805 807 809 811 813 816 817 818 819 820 822 823 825 827 828 829 830 831 833 834 835
755 758 761 764 767 770 772 774 777 779 781 783 785 787 789 790 792 793 795 797 799 801 803 805 808 810 812 814 814 815 817 818 819 821 823 825 826 826 828 830 831 832
749 752 756 758 761 764 766 769 772 774 776 777 780 782 784 785 787 789 791 793 795 797 799 802 804 806 808 810 811 812 813 815 816 817 819 820 821 823 825 826 828 829
743 747 750 752 755 758 761 764 766 769 770 772 774 777 779 781 783 785 787 788 791 793 796 798 800 802 804 806 807 808 809 811 812 813 814 816 818 819 821 823 824 826
737 740 743 746 749 752 755 758 761 763 765 767 769 771 774 776 778 780 782 784 787 790 792 794 796 798 800 802 803 804 806 808 809 810 811 812 814 815 817 819 820 822
730 734 737 740 744 747 750 753 755 757 759 762 764 766 769 771 774 776 778 780 783 785 788 790 792 794 795 797 799 800 802 804 805 806 807 808 810 811 813 815 816 818
724 728 731 735 739 742 745 747 749 752 754 757 760 761 764 766 768 771 774 776 779 781 783 786 787 789 791 792 794 796 798 800 801 803 804 805 806 807 809 811 812 814
720 724 727 731 734 737 740 742 744 747 750 753 755 757 759 761 764 767 769 771 774 776 778 780 782 784 785 787 789 791 794 796 797 799 800 802 803 804 805 807 808 810
716 720 723 726 729 731 734 737 740 743 746 748 750 753 755 757 760 763 765 767 769 771 773 775 776 778 779 781 784 787 790 792 793 795 797 798 799 800 801 803 804 806
712 715 718 721 724 727 729 732 736 739 741 744 746 749 751 753 756 758 760 762 764 765 768 769 770 772 774 776 779 782 785 788 789 791 793 794 796 796 797 799 800 802
707 711 714 717 720 723 726 729 732 735 738 740 742 745 747 749 751 754 755 757 759 760 762 763 764 766 768 770 773 777 780 783 786 787 788 790 791 792 793 795 796 797
704 707 709 713 715 719 723 726 729 731 733 736 738 741 743 745 747 749 751 753 754 755 757 758 759 760 762 764 768 771 775 778 781 783 784 785 787 788 790 790 792 793
701 703 706 709 712 716 720 722 725 727 730 733 735 737 739 741 743 745 747 748 750 751 752 753 754 755 756 759 762 765 769 772 776 778 780 781 783 784 785 786 787 788
695 698 702 706 709 713 716 718 721 723 726 729 731 733 734 736 739 740 741 743 745 747 748 748 749 750 751 753 756 760 764 767 771 774 775 776 778 779 781 782 783 784
689 693 697 701 705 708 711 714 716 717 720 723 726 728 730 731 734 735 736 738 741 743 743 743 744 745 745 747 750 754 759 762 765 768 769 770 772 774 776 778 779 780
684 688 691 695 699 702 704 707 709 711 714 717 720 722 724 725 727 729 731 733 734 735 736 736 738 739 740 742 745 748 752 756 759 761 763 764 767 769 771 773 775 776
681 684 687 690 693 695 697 699 702 705 709 712 714 716 718 720 722 724 725 726 727 728 729 731 733 734 735 737 739 741 744 748 751 754 757 759 762 765 767 769 771 772
677 680 683 685 687 689 691 694 697 701 704 707 710 712 714 717 719 720 721 721 723 724 726 729 730 731 732 733 734 736 738 742 745 748 750 753 756 759 761 763 765 767
673 676 678 679 682 684 687 691 694 697 699 702 704 707 710 713 714 716 717 718 719 721 723 725 726 727 728 728 730 731 733 736 739 740 741 744 748 751 754 756 758 760
Wind_Speed
26 26 25 24 24 23 22 22 21 21 21 21 20 20 20 20 19 19 19 18 19 19 17 16 15 15 15 14 14 13 12 12 12 11 12 13 12 11 11 12 11 10
29 27 25 24 24 24 23 23 22 21 22 22 21 20 20 20 19 19 19 19 19 19 18 17 16 17 16 15 15 14 13 13 13 12 13 14 13 12 13 12 12 12
29 29 27 26 25 25 24 23 21 22 21 21 22 21 20 19 19 20 21 20 20 19 19 18 17 17 17 17 16 15 15 15 14 13 14 15 14 13 14 13 13 13
31 31 30 28 26 24 24 23 22 22 22 22 22 22 21 19 20 20 21 21 20 19 19 19 19 18 18 18 17 17 17 16 15 14 15 16 15 15 14 14 14 13
33 32 30 29 27 24 23 24 24 23 23 23 22 22 22 21 21 21 21 22 22 21 20 20 20 19 18 18 18 18 18 17 16 16 17 17 16 16 16 15 15 14
33 33 31 30 29 26 24 25 25 24 24 24 23 22 23 23 23 22 22 22 22 22 21 21 21 20 19 19 19 19 19 17 17 17 18 18 16 16 16 16 16 16
33 33 33 32 30 28 27 26 26 26 25 24 24 24 24 24 24 24 24 23 23 22 22 22 22 21 20 20 20 20 20 18 17 18 19 19 17 16 17 17 17 17
34 33 33 33 31 29 29 28 27 27 27 26 25 25 25 25 26 26 25 25 24 23 23 23 22 22 21 21 21 21 21 19 19 19 20 20 18 17 18 17 17 18
34 33 33 33 32 31 30 30 28 28 28 28 27 26 26 27 27 26 26 26 25 24 24 24 23 23 22 22 22 23 22 21 20 21 21 21 19 19 19 18 17 18
34 33 33 33 33 32 31 31 30 29 29 29 29 28 27 27 28 27 26 26 26 25 25 24 24 24 23 23 23 23 23 22 21 22 22 21 20 20 20 20 19 19
34 34 34 34 34 33 32 32 31 30 29 30 30 30 28 27 27 28 27 26 26 26 25 25 25 25 25 25 24 24 24 23 22 22 22 22 22 21 21 21 20 20
35 35 35 35 35 33 33 33 33 32 30 30 30 31 30 28 27 27 27 27 26 25 25 25 25 25 26 26 25 24 24 24 23 22 23 23 22 22 22 22 21 21
36 36 36 36 35 34 33 33 34 33 32 31 30 30 31 30 28 27 27 27 26 26 26 26 26 26 26 27 27 25 24 24 23 22 22 22 23 23 23 23 22 22
35 35 35 34 34 34 34 34 33 33 33 31 30 30 30 31 30 29 27 26 26 27 27 26 26 27 27 27 27 26 25 24 24 23 22 22 22 23 23 23 23 22
33 33 32 33 33 33 34 34 33 32 32 31 30 29 29 30 30 29 28 26 27 27 28 27 27 28 28 28 28 27 25 24 24 24 23 22 22 23 23 23 23 23
31 31 31 31 33 33 34 34 33 31 31 31 31 29 28 29 29 29 28 27 27 27 28 28 28 28 30 32 31 28 26 24 24 23 24 23 22 22 23 23 23 23
30 31 30 31 32 33 33 33 33 31 30 30 30 29 28 28 28 29 28 28 27 27 28 28 28 30 33 36 37 34 29 24 23 23 23 23 23 23 22 23 23 23
30 30 29 30 31 32 31 31 31 30 29 29 29 29 29 28 28 29 29 28 27 27 28 29 29 31 35 37 38 39 36 29 23 22 23 23 24 24 23 22 22 23
28 28 29 29 30 30 29 29 30 30 30 29 28 28 28 28 28 28 29 29 29 28 28 29 28 31 36 39 39 40 40 36 28 23 22 23 23 24 24 23 22 22
27 28 28 28 28 28 27 28 30 31 30 28 27 28 28 28 28 28 29 29 30 29 28 28 28 30 35 39 40 40 41 41 35 26 23 23 23 24 24 24 24 23
29 29 27 27 26 27 27 28 28 29 29 29 28 28 28 29 29 29 29 29 29 29 28 28 29 32 35 37 40 40 40 41 39 31 26 25 24 24 25 25 25 25
30 30 28 27 27 27 28 29 29 30 30 30 29 28 28 29 29 30 30 30 31 31 30 30 30 33 37 38 38 39 39 41 40 34 29 28 25 25 26 27 27 26
30 30 29 28 28 29 30 31 31 32 31 30 30 29 28 29 30 30 30 31 33 33 33 33 32 33 37 40 40 39 39 42 41 34 30 29 27 26 26 28 29 28
28 28 28 29 29 30 32 32 32 31 30 29 29 29 29 29 28 29 29 31 33 33 34 34 32 32 36 39 41 40 41 43 40 33 29 29 28 28 28 28 30 30
27 28 29 29 31 32 32 31 30 28 27 27 28 28 28 27 26 27 29 30 30 31 32 32 30 30 33 38 41 41 43 43 38 31 30 29 29 30 30 30 30 30
28 29 30 30 31 31 29 27 27 26 26 27 27 27 26 26 26 26 27 27 27 28 30 31 32 33 33 36 40 42 44 43 37 32 32 32 31 31 29 30 31 31
Wind_Direction
211 212 213 212 212 210 209 209 207 206 206 207 210 213 215 216 215 213 211 210 209 209 209 210 215 221 225 225 224 223 223 223 222 219 214 210 205 203 203 202 205 211
213 213 212 213 213 209 208 210 208 207 207 208 210 212 213 214 212 211 211 210 211 210 207 207 211 217 221 223 222 221 223 224 222 218 214 209 205 202 201 202 204 208
212 214 213 214 214 209 207 209 208 209 209 209 210 211 211 211 209 209 210 210 213 214 211 208 209 212 217 220 219 219 222 223 222 218 215 210 205 203 202 201 206 206
210 214 214 215 215 210 206 207 208 210 211 211 211 211 211 210 208 208 208 210 212 214 213 211 210 210 212 216 216 217 220 223 223 218 215 213 206 204 204 203 206 206
208 211 213 216 217 210 205 206 209 210 210 211 211 211 210 209 208 207 207 209 211 213 214 212 211 210 209 210 213 216 218 221 223 217 215 215 208 204 206 205 206 206
205 208 210 213 214 210 206 208 210 210 211 212 210 209 210 209 209 209 208 208 210 213 214 213 212 211 208 207 209 214 216 218 219 215 214 215 209 205 207 207 206 206
203 205 206 209 211 209 209 210 210 210 211 211 210 208 208 208 209 210 210 209 210 211 211 211 211 210 208 205 206 210 212 215 216 214 216 216 210 207 209 209 207 207
202 203 204 207 209 209 210 210 210 210 210 209 209 209 209 209 210 211 211 209 210 209 208 208 208 209 209 205 205 207 208 210 213 212 214 215 209 207 209 209 207 208
202 203 204 206 208 209 210 210 210 210 209 208 209 210 210 210 212 212 211 209 209 209 206 205 205 206 210 209 206 205 206 208 208 208 210 210 209 208 209 209 208 209
202 203 204 206 207 209 210 210 210 210 209 209 210 211 211 211 212 213 211 209 208 208 205 204 204 204 209 212 209 207 208 208 206 204 206 207 208 209 210 210 209 210
202 203 205 206 207 209 209 210 211 211 210 209 210 212 212 211 211 212 211 209 208 208 206 205 205 205 208 211 212 210 211 211 208 205 206 207 209 210 210 210 211 212
202 203 206 207 207 209 209 210 212 212 211 210 210 211 211 211 211 211 210 210 209 208 207 206 207 207 208 210 212 212 213 214 212 209 208 209 210 211 211 211 212 214
202 203 205 206 207 208 209 210 211 212 212 210 210 210 211 211 211 211 210 210 209 209 209 208 209 209 209 211 213 213 213 215 214 212 210 210 211 212 213 213 214 215
202 202 203 204 205 206 207 209 210 211 210 210 209 209 210 211 211 210 209 208 208 210 210 209 210 211 211 211 213 214 214 214 215 213 211 210 211 213 214 215 216 217
200 201 202 202 202 203 205 207 209 209 209 209 209 209 210 211 211 210 208 207 207 209 210 210 211 212 213 212 212 212 213 214 214 214 214 212 210 212 215 215 216 218
196 198 198 199 200 201 202 205 207 208 208 208 208 208 209 210 210 210 209 208 207 207 209 211 212 214 216 218 217 214 211 213 215 214 214 214 211 211 214 215 216 219
193 195 195 196 198 200 200 202 205 206 207 207 207 208 209 209 209 209 210 210 208 208 210 212 213 216 219 221 222 220 214 211 214 214 213 213 213 212 213 214 215 217
191 192 193 194 196 198 199 200 202 205 206 205 206 207 207 208 209 209 210 211 211 210 211 213 215 218 221 223 224 224 220 215 214 215 214 213 214 214 214 214 214 215
190 190 192 194 195 196 198 198 200 204 206 206 206 207 207 208 208 209 210 211 212 212 213 215 216 219 223 224 225 226 225 221 217 215 215 215 215 216 215 214 213 213
191 193 194 194 194 193 196 199 202 205 207 208 208 208 209 209 209 210 211 212 213 214 215 217 218 220 224 226 226 226 226 224 220 217 218 219 219 220 219 217 214 211
194 196 194 194 194 193 196 201 204 206 208 209 211 211 211 212 212 211 211 212 215 217 218 221 222 222 223 226 226 226 227 225 221 217 219 221 220 222 225 224 219 213
194 194 193 194 194 194 198 203 205 208 208 209 211 213 214 215 215 215 215 215 218 220 222 226 227 225 224 225 226 226 225 223 219 217 218 219 219 221 225 228 227 220
192 192 192 194 194 196 201 205 207 209 209 207 209 212 213 214 215 217 218 218 218 219 221 225 227 226 224 225 225 224 221 219 217 215 216 219 221 221 223 227 229 225
189 190 191 192 195 198 202 205 206 208 207 206 208 211 213 214 214 215 217 217 217 218 219 223 226 227 226 225 224 223 219 215 213 211 212 217 221 222 223 225 228 227
187 191 193 194 197 201 204 205 205 205 205 205 209 212 215 216 216 217 219 219 220 222 223 225 229 231 229 226 224 223 219 213 208 206 209 213 217 219 220 222 225 226
192 195 196 199 201 203 204 204 203 203 204 204 208 213 216 218 218 220 222 222 221 223 225 227 230 233 234 229 226 225 220 212 205 204 206 208 211 213 214 217 220 222